Wind_Speed
36 36 38 39 40 41 43 45 47 48 48 48 49 50 50 52 55 56 55 54 53 53 52 51 50 47 45 42 39 40 40 38 37 36 36 29 31 43 50 37 36 35 32 30
45 45 46 47 48 49 51 52 53 54 54 54 54 54 54 54 55 58 61 61 61 59 58 56 55 54 50 47 44 42 42 43 39 39 35 36 36 33 36 41 39 37 35 33
48 49 49 48 49 49 50 51 52 54 54 56 58 59 60 60 61 61 62 64 66 66 65 62 61 59 57 55 50 48 48 47 48 41 38 36 34 32 41 42 36 41 39 37
45 44 44 46 47 48 51 49 51 52 52 50 58 54 63 63 65 66 67 67 67 68 69 68 66 65 63 61 58 55 52 50 47 50 43 40 35 33 33 38 39 36 38 37
31 30 30 31 33 33 36 37 39 41 42 45 48 52 50 63 61 64 66 70 72 73 71 71 70 69 68 67 65 61 57 54 52 48 46 42 40 38 37 39 38 39 36 42
12 13 14 16 19 21 25 28 31 32 35 37 39 44 41 58 53 56 62 67 69 73 77 76 75 73 71 71 70 67 63 59 55 53 50 45 42 41 42 42 41 38 40 43
12 14 16 18 21 23 27 28 29 33 36 36 42 45 48 49 52 52 54 58 64 69 73 77 81 79 77 74 73 72 69 64 60 57 54 50 49 45 45 44 42 43 43 41
13 14 16 16 17 18 18 18 19 20 22 18 27 29 36 37 44 44 50 55 60 63 67 72 78 82 82 80 76 74 72 69 64 61 57 55 54 50 49 45 45 43 43 47
8 10 11 14 15 15 14 17 18 20 20 17 14 15 15 16 21 26 31 40 50 59 63 68 72 79 82 85 83 78 74 72 68 64 60 59 56 55 51 46 46 47 45 43
10 11 12 11 11 13 17 21 23 26 29 30 26 30 29 26 27 29 34 36 38 43 53 65 72 74 79 82 87 84 78 73 71 67 64 61 60 57 49 51 55 49 48 50
12 15 16 19 19 18 18 22 29 33 35 37 38 35 40 37 39 38 37 41 42 41 45 46 56 74 78 79 84 87 83 77 72 69 66 64 62 58 59 54 51 36 30 57
17 19 21 22 22 22 21 19 18 20 23 24 28 33 33 33 34 32 31 32 36 41 46 46 45 56 67 79 80 84 85 80 74 70 67 66 62 60 59 55 51 49 50 43
18 23 23 21 21 24 24 22 18 18 19 20 21 24 20 18 19 23 22 23 25 28 25 26 26 37 42 61 76 79 79 83 75 70 68 67 61 58 55 53 50 48 46 44
17 21 24 26 24 24 24 24 21 20 19 20 19 15 11 14 12 14 10 10 9 9 14 19 21 23 21 28 59 65 73 75 78 70 49 65 60 55 52 50 47 46 47 45
18 19 23 26 29 25 22 23 21 20 18 18 21 17 3 3 13 11 4 11 14 21 12 9 10 23 19 20 40 53 60 64 67 52 66 56 56 54 50 46 46 47 46 47
19 23 26 28 30 30 21 20 19 22 16 15 21 12 16 13 4 9 14 20 21 16 9 4 5 4 13 21 27 34 45 52 56 61 58 58 51 46 43 40 39 39 41 41
23 28 34 35 35 33 23 16 18 21 18 14 12 10 5 8 6 11 13 16 16 15 9 4 3 6 14 13 31 32 42 42 42 52 50 52 44 40 37 37 39 40 39 41
29 33 37 40 41 36 25 14 13 16 19 15 13 12 7 5 6 11 12 11 13 15 12 9 4 7 8 16 21 37 21 21 28 31 43 40 35 32 33 37 40 42 43 45
30 34 39 40 40 35 23 15 8 11 14 18 18 14 8 7 6 7 9 11 11 11 10 10 9 7 4 11 15 22 25 20 21 23 27 27 30 30 38 43 47 51 54 57
34 37 38 37 33 30 22 14 5 7 8 13 17 17 20 16 10 12 14 12 11 12 13 12 12 11 8 2 11 19 21 21 23 24 25 26 26 27 28 29 29 37 43 46
34 30 27 23 24 23 20 13 4 5 5 8 13 15 18 20 16 15 13 14 17 19 18 17 17 17 22 12 9 17 20 22 27 28 26 23 24 23 26 30 35 37 41 47
23 19 17 20 23 25 21 15 8 5 5 4 9 12 15 16 15 16 18 17 16 14 13 15 17 16 21 25 19 14 15 16 19 21 26 25 21 22 21 24 30 38 45 51
32 33 30 29 29 33 34 30 26 21 17 15 16 18 20 22 24 26 27 28 29 29 24 19 16 14 16 22 25 23 18 13 11 11 13 15 15 18 19 21 17 13 13 19
24 25 26 27 29 31 34 37 36 34 32 31 30 29 28 28 30 29 29 30 30 31 33 32 28 23 19 17 16 18 18 16 11 6 4 9 12 14 17 13 15 10 8 7
21 22 23 24 26 27 28 29 30 31 32 31 30 28 27 27 27 27 29 30 31 31 31 31 30 29 28 24 19 13 10 9 8 5 5 6 5 7 9 14 13 11 8 6
17 18 19 20 21 23 24 25 24 24 24 24 23 23 22 23 24 24 24 25 25 25 25 26 26 27 27 28 27 25 22 18 15 15 15 13 10 11 13 12 11 10 10 12
Wind_Direction
267 265 263 262 259 258 259 259 258 257 256 252 250 248 244 242 241 241 241 240 239 237 239 242 246 246 244 242 239 242 248 233 232 230 224 229 235 227 237 224 230 225 224 224
269 269 268 265 263 262 263 262 260 259 257 256 254 252 249 246 243 241 241 240 240 240 238 238 240 244 243 244 242 241 244 248 235 234 227 232 242 243 205 220 222 223 218 223
270 269 268 267 266 265 264 262 261 260 259 257 255 254 251 249 247 244 242 241 240 240 240 238 238 239 242 241 240 239 241 244 249 236 237 238 243 245 230 229 229 225 225 226
272 273 272 270 269 268 267 266 265 263 261 259 256 256 252 248 247 246 244 242 241 241 240 240 237 236 238 240 240 240 240 242 249 250 234 234 243 243 235 231 233 228 224 233
275 272 272 271 271 268 269 267 266 265 263 260 259 257 255 253 247 245 244 242 240 240 240 240 239 237 235 237 238 239 238 240 241 249 247 233 236 244 237 240 238 239 249 236
280 280 281 279 278 276 275 276 275 271 268 268 264 263 258 258 255 252 247 243 241 239 239 239 239 237 235 234 236 237 237 237 238 239 246 244 241 245 245 243 241 238 245 231
302 299 294 290 288 284 283 280 279 278 273 269 267 262 257 259 258 254 253 250 246 241 238 237 237 237 236 233 233 234 235 235 235 236 238 240 240 244 246 246 246 245 243 241
303 293 292 292 285 288 284 286 281 280 275 268 276 276 273 259 258 258 256 253 250 249 244 239 235 235 234 235 231 231 233 234 233 233 234 237 240 243 246 247 247 247 245 252
326 326 323 312 305 299 292 294 281 283 282 278 284 285 282 275 264 260 257 257 256 252 250 248 241 235 234 232 233 230 229 231 232 231 232 235 238 242 246 248 250 249 251 250
6 10 2 353 338 323 301 295 290 290 284 281 280 277 278 281 282 276 270 266 261 256 251 250 246 242 234 232 230 231 229 227 230 230 229 233 235 240 243 245 246 242 245 245
45 32 31 26 13 355 328 304 288 287 285 281 281 278 281 281 281 277 273 270 264 262 260 264 251 245 239 233 230 228 228 227 226 229 230 231 233 238 240 241 246 249 248 247
55 39 29 22 13 4 352 331 316 309 301 297 285 280 283 289 286 285 282 274 270 264 263 264 262 245 242 233 229 228 226 226 225 225 228 231 234 235 238 245 250 255 263 258
36 31 20 15 9 4 5 358 347 337 323 321 312 308 309 301 296 296 286 270 266 267 256 240 245 244 249 235 226 226 225 225 225 225 225 230 232 235 238 245 252 257 261 262
26 22 16 12 3 359 2 3 4 2 354 350 338 339 320 289 281 269 229 227 233 276 270 273 243 222 241 237 218 219 222 224 223 224 225 228 230 233 237 243 248 254 256 257
14 11 10 9 6 359 355 6 16 15 14 28 29 23 53 173 186 169 213 322 338 337 331 286 240 227 225 201 204 207 214 220 215 214 217 221 224 227 235 242 247 251 257 257
360 360 358 358 3 359 357 4 19 23 33 58 67 102 119 154 119 327 342 355 354 3 35 103 165 199 167 177 184 184 200 204 214 221 220 225 232 231 235 240 245 246 254 256
353 350 348 349 351 354 353 354 16 32 36 44 84 125 179 242 286 334 355 9 9 35 80 90 145 161 182 158 180 190 188 187 207 215 218 222 225 228 234 239 239 245 253 256
343 342 339 337 337 345 346 354 9 32 43 42 48 61 64 39 24 42 41 44 55 70 91 94 68 125 152 183 199 209 221 200 185 191 204 214 221 231 235 239 245 251 255 253
329 327 325 327 329 333 339 342 0 24 44 59 58 55 47 37 42 47 56 75 73 76 80 92 99 119 176 218 204 201 216 207 196 198 214 219 225 235 243 251 257 262 263 261
323 319 318 321 322 329 332 327 324 20 37 67 69 74 65 62 61 61 63 81 87 97 97 94 83 70 56 126 173 184 201 205 204 195 198 204 209 220 229 239 256 261 264 264
319 321 322 326 334 338 334 331 310 353 61 67 72 67 69 74 76 71 84 62 60 61 64 70 86 83 65 67 149 158 169 182 186 189 199 214 222 244 256 263 266 264 263 262
23 27 36 41 43 33 24 28 30 47 79 86 73 64 56 54 53 50 46 44 43 44 52 63 69 73 67 67 94 134 178 198 211 218 219 229 237 243 246 262 268 271 270 264
53 59 58 57 51 46 48 54 64 76 80 79 72 61 59 61 68 70 69 66 64 65 67 67 71 81 81 77 83 94 101 116 138 161 186 203 211 227 256 264 259 297 314 279
46 47 50 48 47 46 49 54 62 70 74 75 75 76 75 74 71 69 68 68 67 67 71 75 78 80 79 83 84 90 91 90 96 112 176 213 234 256 253 253 270 281 318 2
43 44 44 45 46 45 47 52 59 66 71 72 72 71 70 69 67 65 64 64 63 64 64 64 64 67 73 78 83 82 88 111 120 125 154 180 204 226 239 253 251 258 266 317
35 40 43 44 46 48 50 52 54 58 63 65 67 66 65 62 60 59 58 58 57 56 55 57 60 62 63 66 71 77 81 85 87 93 94 95 106 86 81 78 70 61 66 72
Height
5750 5750 5750 5750 5750 5749 5748 5749 5749 5750 5752 5754 5755 5757 5761 5763 5765 5768 5772 5774 5776 5780 5784 5787 5790 5795 5798 5802 5805 5806 5806 5809 5811 5814 5817 5816 5820 5822 5824 5827 5831 5834 5837 5840
5738 5737 5737 5737 5738 5737 5737 5736 5736 5737 5739 5740 5741 5743 5746 5749 5752 5754 5757 5760 5763 5766 5771 5776 5780 5783 5788 5791 5795 5799 5801 5802 5804 5807 5809 5811 5812 5812 5815 5820 5824 5828 5830 5834
5725 5725 5724 5724 5723 5722 5722 5722 5722 5723 5724 5724 5726 5728 5730 5733 5735 5738 5741 5744 5747 5751 5755 5760 5766 5771 5775 5780 5784 5789 5792 5796 5795 5800 5804 5806 5807 5809 5811 5816 5820 5822 5825 5828
5710 5709 5709 5708 5708 5708 5706 5706 5706 5707 5708 5707 5711 5712 5711 5716 5716 5719 5723 5727 5730 5734 5738 5743 5749 5756 5761 5766 5771 5777 5782 5787 5789 5788 5795 5798 5803 5807 5809 5811 5814 5816 5818 5822
5699 5697 5696 5696 5695 5695 5694 5693 5693 5693 5692 5691 5694 5693 5695 5694 5697 5700 5703 5707 5711 5715 5719 5724 5730 5737 5745 5751 5757 5763 5769 5775 5779 5781 5782 5788 5793 5798 5802 5804 5807 5808 5813 5816
5690 5690 5690 5689 5688 5687 5686 5685 5683 5682 5681 5681 5681 5680 5683 5674 5681 5680 5683 5687 5690 5695 5700 5705 5711 5718 5727 5735 5741 5748 5755 5762 5767 5772 5775 5778 5785 5790 5793 5797 5799 5803 5807 5807
5687 5686 5685 5684 5683 5681 5680 5678 5675 5674 5671 5669 5667 5665 5661 5666 5662 5664 5665 5667 5669 5674 5679 5684 5691 5698 5707 5716 5724 5733 5740 5748 5755 5760 5765 5769 5775 5779 5783 5788 5791 5795 5798 5799
5685 5684 5682 5680 5678 5676 5673 5671 5669 5666 5662 5658 5653 5651 5646 5649 5649 5648 5649 5651 5652 5655 5658 5664 5670 5677 5687 5696 5706 5716 5726 5734 5742 5749 5755 5759 5764 5769 5772 5779 5783 5787 5790 5794
5682 5681 5678 5675 5673 5672 5669 5666 5664 5660 5656 5651 5649 5646 5643 5641 5639 5637 5636 5636 5636 5638 5640 5643 5649 5656 5664 5675 5686 5698 5709 5719 5728 5736 5744 5749 5754 5759 5765 5769 5774 5778 5780 5783
5682 5679 5676 5673 5670 5667 5663 5661 5657 5653 5649 5645 5642 5638 5635 5635 5632 5629 5626 5624 5623 5621 5621 5623 5627 5634 5644 5653 5666 5679 5693 5704 5714 5724 5731 5738 5744 5749 5757 5758 5754 5762 5768 5770
5681 5679 5676 5671 5667 5662 5659 5654 5649 5645 5640 5634 5631 5628 5623 5622 5620 5617 5614 5611 5612 5609 5607 5606 5606 5611 5621 5634 5645 5659 5674 5688 5700 5710 5719 5726 5733 5739 5740 5740 5742 5750 5754 5759
5681 5678 5674 5670 5665 5660 5655 5648 5642 5636 5631 5625 5620 5616 5612 5610 5605 5603 5601 5600 5597 5594 5592 5592 5589 5592 5598 5611 5627 5641 5657 5672 5686 5697 5707 5714 5721 5726 5731 5733 5738 5741 5744 5747
5681 5678 5674 5670 5666 5659 5652 5644 5638 5632 5625 5620 5614 5610 5604 5600 5596 5595 5593 5588 5585 5581 5577 5576 5577 5580 5583 5589 5608 5625 5641 5656 5672 5685 5695 5702 5710 5716 5721 5724 5729 5733 5737 5740
5681 5677 5673 5669 5663 5657 5650 5643 5636 5630 5623 5617 5610 5606 5600 5593 5592 5590 5589 5585 5582 5579 5575 5573 5573 5573 5576 5577 5591 5610 5628 5643 5658 5673 5687 5692 5698 5705 5712 5717 5721 5725 5728 5732
5680 5676 5672 5668 5662 5656 5649 5643 5637 5630 5624 5618 5611 5602 5597 5594 5592 5590 5588 5586 5580 5575 5570 5566 5567 5569 5571 5573 5585 5602 5618 5634 5651 5660 5673 5681 5687 5695 5703 5709 5713 5716 5718 5723
5679 5675 5670 5666 5661 5655 5649 5643 5637 5631 5625 5620 5616 5608 5602 5598 5596 5592 5588 5584 5579 5575 5571 5569 5570 5570 5573 5577 5588 5604 5614 5627 5639 5652 5662 5671 5679 5687 5693 5700 5705 5708 5711 5713
5678 5673 5668 5663 5658 5654 5649 5643 5637 5631 5625 5621 5617 5613 5607 5603 5598 5595 5591 5586 5582 5578 5577 5576 5576 5576 5578 5585 5593 5605 5614 5624 5635 5644 5654 5665 5673 5679 5686 5692 5696 5699 5703 5705
5677 5672 5666 5661 5655 5652 5647 5642 5638 5632 5626 5621 5618 5614 5610 5606 5601 5597 5594 5590 5587 5584 5582 5582 5582 5584 5588 5592 5597 5598 5607 5616 5625 5634 5649 5658 5665 5673 5679 5683 5687 5689 5692 5694
5677 5671 5665 5658 5652 5649 5643 5640 5638 5633 5629 5624 5620 5616 5612 5608 5603 5600 5597 5594 5592 5589 5588 5587 5588 5589 5589 5592 5597 5602 5608 5616 5625 5636 5646 5654 5661 5666 5671 5675 5678 5680 5682 5684
5675 5669 5663 5656 5650 5644 5640 5636 5635 5633 5630 5625 5622 5619 5615 5610 5607 5605 5601 5600 5596 5594 5592 5591 5592 5592 5592 5593 5595 5601 5607 5613 5623 5634 5642 5649 5655 5660 5664 5667 5669 5670 5671 5672
5672 5665 5659 5654 5649 5643 5635 5632 5631 5633 5634 5627 5624 5621 5617 5614 5612 5610 5606 5604 5602 5600 5598 5598 5597 5597 5596 5594 5596 5602 5609 5615 5622 5629 5636 5642 5648 5653 5656 5659 5661 5660 5660 5659
5671 5664 5659 5656 5652 5646 5636 5631 5629 5630 5630 5628 5626 5623 5621 5618 5615 5613 5610 5607 5606 5604 5602 5601 5601 5601 5600 5598 5599 5602 5608 5614 5619 5625 5631 5636 5641 5646 5649 5651 5650 5649 5645 5644
5678 5673 5668 5664 5659 5652 5644 5637 5633 5632 5632 5632 5630 5627 5626 5624 5623 5620 5617 5614 5611 5609 5607 5606 5606 5606 5606 5605 5606 5607 5610 5614 5618 5622 5627 5631 5636 5640 5642 5643 5643 5640 5632 5625
5685 5681 5676 5671 5666 5660 5654 5648 5643 5641 5639 5637 5636 5635 5634 5633 5630 5628 5626 5624 5621 5618 5616 5615 5613 5611 5610 5610 5611 5612 5614 5616 5619 5622 5625 5629 5632 5634 5635 5636 5635 5632 5629 5624
5691 5686 5682 5677 5672 5668 5663 5659 5656 5652 5649 5647 5645 5644 5642 5640 5637 5635 5632 5629 5627 5625 5623 5621 5618 5617 5616 5616 5616 5617 5618 5619 5621 5623 5625 5627 5628 5630 5631 5631 5630 5628 5626 5625
5694 5691 5687 5683 5678 5675 5671 5667 5664 5661 5657 5654 5652 5651 5649 5646 5643 5640 5638 5635 5633 5631 5629 5628 5626 5625 5623 5622 5621 5620 5621 5621 5622 5623 5624 5625 5626 5627 5626 5626 5624 5625 5624 5622